When you browse on this site, cookies collect data to enhance your experience and personalize the content and advertising you see.
Visit our Privacy Policy to learn more. By continuing to use the site, you agree to this use of cookies and data.
  • In Portugal
  • List of Countries
  • For 7 days
  • Water Temperature
  • Weather Map
  • Weather Widgets
  • user-avatar
    Login

    Hourly Weather Vanadzor

    Today, 4 June, Thursday

    Time Temperature Precipitation Wind Pressure Humidity
    00:00 +12°C° 0.5 mm 1 mps 632 mmHg 80%
    01:00 +12°C° 0 mm 1 mps 632 mmHg 79%
    02:00 +11°C° 0 mm 1 mps 632 mmHg 77%
    03:00 +11°C° 0 mm 1 mps 632 mmHg 76%
    04:00 +12°C° 0 mm 1 mps 632 mmHg 76%
    05:00 +13°C° 0 mm 1 mps 633 mmHg 77%
    06:00 +14°C° 0 mm 1 mps 633 mmHg 77%
    07:00 +16°C° 0 mm 1 mps 634 mmHg 69%
    08:00 +19°C° 0 mm 1 mps 634 mmHg 61%
    09:00 +21°C° 0 mm 1 mps 635 mmHg 53%
    10:00 +22°C° 0 mm 1 mps 635 mmHg 50%
    11:00 +23°C° 0 mm 2 mps 635 mmHg 47%
    12:00 +23°C° 0 mm 2 mps 635 mmHg 45%
    13:00 +22°C° 0.1 mm 3 mps 635 mmHg 46%
    14:00 +24°C° 0.1 mm 3 mps 635 mmHg 48%
    15:00 +24°C° 0.1 mm 3 mps 635 mmHg 49%
    16:00 +23°C° 0.1 mm 2 mps 635 mmHg 56%
    17:00 +21°C° 0.1 mm 2 mps 635 mmHg 63%
    18:00 +21°C° 0.1 mm 1 mps 635 mmHg 69%
    19:00 +19°C° 0.1 mm 1 mps 635 mmHg 68%
    20:00 +16°C° 0.1 mm 2 mps 635 mmHg 67%
    21:00 +14°C° 0.1 mm 2 mps 635 mmHg 66%
    22:00 +13°C° 0 mm 2 mps 635 mmHg 65%
    23:00 +12°C° 0 mm 2 mps 635 mmHg 65%

    Tomorrow, 5 June, Friday

    Time Temperature Precipitation Wind Pressure Humidity
    00:00 +12°C° 0 mm 2 mps 635 mmHg 64%
    01:00 +10°C° 0 mm 2 mps 635 mmHg 66%
    02:00 +10°C° 0 mm 2 mps 635 mmHg 69%
    03:00 +10°C° 0 mm 2 mps 635 mmHg 71%
    04:00 +11°C° 0 mm 1 mps 636 mmHg 72%
    05:00 +12°C° 0 mm 1 mps 636 mmHg 72%
    06:00 +13°C° 0 mm 1 mps 636 mmHg 73%
    07:00 +15°C° 0 mm 1 mps 637 mmHg 66%
    08:00 +18°C° 0 mm 1 mps 638 mmHg 58%
    09:00 +20°C° 0 mm 1 mps 638 mmHg 51%
    10:00 +20°C° 0 mm 2 mps 638 mmHg 50%
    11:00 +20°C° 0 mm 2 mps 638 mmHg 49%
    12:00 +21°C° 0 mm 3 mps 638 mmHg 48%
    13:00 +21°C° 0.1 mm 2 mps 638 mmHg 49%
    14:00 +21°C° 0.1 mm 2 mps 638 mmHg 50%
    15:00 +21°C° 0.1 mm 2 mps 637 mmHg 51%
    16:00 +20°C° 0.6 mm 2 mps 637 mmHg 59%
    17:00 +19°C° 0.6 mm 1 mps 637 mmHg 67%
    18:00 +18°C° 0.6 mm 1 mps 637 mmHg 75%
    19:00 +15°C° 0.1 mm 1 mps 637 mmHg 78%
    20:00 +13°C° 0.1 mm 1 mps 637 mmHg 81%
    21:00 +12°C° 0.1 mm 1 mps 637 mmHg 84%
    22:00 +11°C° 0 mm 1 mps 637 mmHg 82%
    23:00 +11°C° 0 mm 1 mps 637 mmHg 80%

    Day after tomorrow, 6 June, Saturday

    Time Temperature Precipitation Wind Pressure Humidity
    00:00 +11°C° 0 mm 1 mps 637 mmHg 79%
    01:00 +11°C° 0 mm 1 mps 637 mmHg 80%
    02:00 +10°C° 0 mm 1 mps 637 mmHg 80%
    03:00 +10°C° 0 mm 1 mps 636 mmHg 81%
    04:00 +11°C° 0 mm 1 mps 637 mmHg 82%
    05:00 +12°C° 0 mm 1 mps 637 mmHg 82%
    06:00 +13°C° 0 mm 1 mps 638 mmHg 83%
    07:00 +15°C° 0.2 mm 1 mps 638 mmHg 78%
    08:00 +16°C° 0.2 mm 1 mps 639 mmHg 73%
    09:00 +18°C° 0.2 mm 2 mps 639 mmHg 68%
    10:00 +18°C° 0.8 mm 2 mps 639 mmHg 67%
    11:00 +19°C° 0.8 mm 2 mps 639 mmHg 65%
    12:00 +20°C° 0.8 mm 2 mps 639 mmHg 64%
    13:00 +19°C° 1.2 mm 2 mps 639 mmHg 67%
    14:00 +19°C° 1.2 mm 2 mps 638 mmHg 69%
    15:00 +19°C° 1.2 mm 2 mps 638 mmHg 72%
    16:00 +18°C° 0.9 mm 2 mps 638 mmHg 77%
    17:00 +17°C° 0.9 mm 2 mps 638 mmHg 81%
    18:00 +17°C° 0.9 mm 2 mps 638 mmHg 86%
    19:00 +15°C° 0.9 mm 2 mps 638 mmHg 88%
    20:00 +14°C° 0.9 mm 1 mps 638 mmHg 89%
    21:00 +13°C° 0.9 mm 1 mps 638 mmHg 91%
    22:00 +12°C° 0 mm 1 mps 637 mmHg 91%
    23:00 +11°C° 0 mm 1 mps 637 mmHg 91%

    7 June, Sunday

    Time Temperature Precipitation Wind Pressure Humidity
    00:00 +11°C° 0 mm 1 mps 637 mmHg 91%
    01:00 +10°C° 0 mm 1 mps 637 mmHg 91%
    02:00 +10°C° 0 mm 1 mps 637 mmHg 92%
    03:00 +10°C° 0 mm 1 mps 637 mmHg 92%
    04:00 +11°C° 0 mm 1 mps 637 mmHg 91%
    05:00 +12°C° 0 mm 1 mps 637 mmHg 90%
    06:00 +13°C° 0 mm 1 mps 637 mmHg 89%
    07:00 +14°C° 0 mm 1 mps 638 mmHg 84%
    08:00 +16°C° 0 mm 1 mps 638 mmHg 79%
    09:00 +19°C° 0 mm 1 mps 639 mmHg 74%
    10:00 +19°C° 0 mm 2 mps 639 mmHg 70%
    11:00 +20°C° 0 mm 2 mps 639 mmHg 67%
    12:00 +21°C° 0 mm 2 mps 639 mmHg 63%
    13:00 +21°C° 0.1 mm 2 mps 639 mmHg 64%
    14:00 +21°C° 0.1 mm 2 mps 639 mmHg 64%
    15:00 +21°C° 0.1 mm 2 mps 639 mmHg 65%
    16:00 +21°C° 0.1 mm 2 mps 638 mmHg 69%
    17:00 +20°C° 0.1 mm 2 mps 638 mmHg 73%
    18:00 +20°C° 0.1 mm 2 mps 638 mmHg 77%
    19:00 +19°C° 0 mm 1 mps 638 mmHg 82%
    20:00 +16°C° 0 mm 1 mps 637 mmHg 87%
    21:00 +13°C° 0 mm 1 mps 637 mmHg 92%
    22:00 +13°C° 0 mm 1 mps 637 mmHg 91%
    23:00 +13°C° 0 mm 1 mps 637 mmHg 91%

    8 June, Monday

    Time Temperature Precipitation Wind Pressure Humidity
    00:00 +12°C° 0 mm 1 mps 637 mmHg 90%
    01:00 +12°C° 0 mm 1 mps 637 mmHg 90%
    02:00 +12°C° 0 mm 1 mps 636 mmHg 89%
    03:00 +12°C° 0 mm 1 mps 636 mmHg 89%
    04:00 +13°C° 0 mm 1 mps 637 mmHg 87%
    05:00 +14°C° 0 mm 1 mps 637 mmHg 85%
    06:00 +15°C° 0 mm 1 mps 637 mmHg 83%
    07:00 +16°C° 0 mm 1 mps 638 mmHg 77%
    08:00 +19°C° 0 mm 1 mps 638 mmHg 70%
    09:00 +21°C° 0 mm 1 mps 639 mmHg 63%
    10:00 +22°C° 0 mm 1 mps 639 mmHg 61%
    11:00 +23°C° 0 mm 2 mps 639 mmHg 58%
    12:00 +24°C° 0 mm 2 mps 639 mmHg 55%
    13:00 +24°C° 0 mm 2 mps 638 mmHg 57%
    14:00 +24°C° 0 mm 2 mps 638 mmHg 59%
    15:00 +24°C° 0 mm 2 mps 638 mmHg 61%
    16:00 +23°C° 0.1 mm 2 mps 638 mmHg 67%
    17:00 +21°C° 0.1 mm 2 mps 637 mmHg 74%
    18:00 +21°C° 0.1 mm 2 mps 637 mmHg 81%
    19:00 +20°C° 0.1 mm 1 mps 637 mmHg 85%
    20:00 +18°C° 0.1 mm 1 mps 636 mmHg 90%
    21:00 +15°C° 0.1 mm 1 mps 636 mmHg 94%
    22:00 +14°C° 0 mm 1 mps 636 mmHg 93%
    23:00 +14°C° 0 mm 1 mps 636 mmHg 93%

    9 June, Tuesday

    Time Temperature Precipitation Wind Pressure Humidity
    00:00 +13°C° 0 mm 1 mps 636 mmHg 92%
    01:00 +13°C° 0 mm 1 mps 636 mmHg 92%
    02:00 +13°C° 0 mm 1 mps 635 mmHg 91%
    03:00 +12°C° 0 mm 1 mps 635 mmHg 90%
    04:00 +13°C° 0 mm 1 mps 636 mmHg 89%
    05:00 +14°C° 0 mm 1 mps 636 mmHg 87%
    06:00 +15°C° 0 mm 1 mps 636 mmHg 85%
    07:00 +18°C° 0 mm 1 mps 637 mmHg 79%
    08:00 +19°C° 0 mm 1 mps 637 mmHg 73%
    09:00 +20°C° 0 mm 2 mps 637 mmHg 67%
    10:00 +21°C° 0 mm 2 mps 638 mmHg 64%
    11:00 +23°C° 0 mm 2 mps 638 mmHg 61%
    12:00 +23°C° 0 mm 2 mps 638 mmHg 59%
    13:00 +22°C° 0.1 mm 3 mps 637 mmHg 60%
    14:00 +22°C° 0.1 mm 3 mps 637 mmHg 61%
    15:00 +24°C° 0.1 mm 3 mps 637 mmHg 62%
    16:00 +22°C° 0.1 mm 3 mps 636 mmHg 68%
    17:00 +21°C° 0.1 mm 2 mps 636 mmHg 74%
    18:00 +20°C° 0.1 mm 2 mps 636 mmHg 80%
    19:00 +18°C° 0.4 mm 2 mps 636 mmHg 83%
    20:00 +16°C° 0.4 mm 1 mps 636 mmHg 87%
    21:00 +14°C° 0.4 mm 1 mps 636 mmHg 91%
    22:00 +14°C° 0.1 mm 1 mps 635 mmHg 90%
    23:00 +13°C° 0.1 mm 1 mps 635 mmHg 89%
    Show more